Time,TemperatureF,DewpointF,PressureIn,WindDirection,WindDirectionDegrees,WindSpeedMPH,WindSpeedGustMPH,Humidity,HourlyPrecipIn,Conditions,Clouds,dailyrainin,SoftwareType,DateUTC
2013-03-12 00:00:00,22.6,14.0,30.98,West,277,0.0,0.0,69,0.00,,---,0.00,VWS V14.01,2013-03-12 05:00:00,
2013-03-12 00:10:00,22.3,14.0,30.98,WSW,243,3.6,3.6,70,0.00,,---,0.00,VWS V14.01,2013-03-12 05:10:00,
2013-03-12 00:20:00,22.1,13.8,30.95,West,274,0.0,0.0,70,0.00,,---,0.00,VWS V14.01,2013-03-12 05:20:00,
2013-03-12 00:25:00,21.9,13.6,30.95,West,277,3.1,3.1,70,0.00,,---,0.00,VWS V14.01,2013-03-12 05:25:00,
2013-03-12 00:35:00,21.6,13.3,31.01,West,269,0.0,0.0,70,0.00,,---,0.00,VWS V14.01,2013-03-12 05:35:00,
2013-03-12 00:45:00,21.4,13.1,31.01,WNW,282,3.6,3.6,70,0.00,,---,0.00,VWS V14.01,2013-03-12 05:45:00,
2013-03-12 00:55:00,21.2,13.0,31.01,West,267,5.4,5.4,70,0.00,,---,0.00,VWS V14.01,2013-03-12 05:55:00,
2013-03-12 01:00:00,21.2,13.0,31.01,West,261,0.0,0.0,70,0.00,,---,0.00,VWS V14.01,2013-03-12 06:00:00,
2013-03-12 01:10:00,21.4,12.8,31.01,West,262,3.1,3.1,69,0.00,,---,0.00,VWS V14.01,2013-03-12 06:10:00,
2013-03-12 01:15:00,21.4,12.5,31.01,West,263,0.0,0.0,68,0.00,,---,0.00,VWS V14.01,2013-03-12 06:15:00,
2013-03-12 01:20:00,21.4,12.5,31.01,West,275,0.0,0.0,68,0.00,,---,0.00,VWS V14.01,2013-03-12 06:20:00,
2013-03-12 01:30:00,21.4,12.1,31.01,WNW,284,0.0,0.0,67,0.00,,---,0.00,VWS V14.01,2013-03-12 06:30:00,
2013-03-12 01:35:00,21.4,12.1,31.01,WNW,284,3.1,3.1,67,0.00,,---,0.00,VWS V14.01,2013-03-12 06:35:00,
2013-03-12 01:45:00,21.6,12.0,31.01,WNW,286,3.6,3.6,66,0.00,,---,0.00,VWS V14.01,2013-03-12 06:45:00,
2013-03-12 01:55:00,21.6,11.6,31.01,WNW,287,2.7,2.7,65,0.00,,---,0.00,VWS V14.01,2013-03-12 06:55:00,
2013-03-12 02:00:00,21.7,11.8,31.01,West,277,2.2,2.2,65,0.00,,---,0.00,VWS V14.01,2013-03-12 07:00:00,
2013-03-12 02:10:00,21.7,11.8,31.01,WNW,292,2.7,2.7,65,0.00,,---,0.00,VWS V14.01,2013-03-12 07:10:00,
2013-03-12 02:20:00,21.7,11.8,31.01,WNW,293,4.9,4.9,65,0.00,,---,0.00,VWS V14.01,2013-03-12 07:20:00,
2013-03-12 02:30:00,21.7,11.4,31.01,WNW,284,2.2,2.2,64,0.00,,---,0.00,VWS V14.01,2013-03-12 07:30:00,
2013-03-12 02:40:00,21.9,11.6,31.01,WSW,255,3.1,3.1,64,0.00,,---,0.00,VWS V14.01,2013-03-12 07:40:00,
2013-03-12 02:45:00,21.9,11.3,31.01,WNW,292,3.1,3.1,63,0.00,,---,0.00,VWS V14.01,2013-03-12 07:45:00,
2013-03-12 02:55:00,21.9,11.3,31.01,WNW,286,3.1,3.1,63,0.00,,---,0.00,VWS V14.01,2013-03-12 07:55:00,
2013-03-12 03:05:00,21.9,10.9,31.01,WNW,291,2.7,2.7,62,0.00,,---,0.00,VWS V14.01,2013-03-12 08:05:00,
2013-03-12 03:10:00,21.9,10.6,31.01,West,265,0.0,0.0,61,0.00,,---,0.00,VWS V14.01,2013-03-12 08:10:00,
2013-03-12 03:20:00,21.9,10.2,31.01,West,268,2.2,2.2,60,0.00,,---,0.00,VWS V14.01,2013-03-12 08:20:00,
2013-03-12 03:25:00,21.9,9.8,31.01,WNW,293,2.7,2.7,59,0.00,,---,0.00,VWS V14.01,2013-03-12 08:25:00,
2013-03-12 03:35:00,21.9,9.8,31.01,West,267,3.1,3.1,59,0.00,,---,0.00,VWS V14.01,2013-03-12 08:35:00,
2013-03-12 03:40:00,22.1,9.6,31.01,NW,314,3.6,3.6,58,0.00,,---,0.00,VWS V14.01,2013-03-12 08:40:00,
2013-03-12 03:50:00,21.9,9.0,31.01,West,275,3.6,3.6,57,0.00,,---,0.00,VWS V14.01,2013-03-12 08:50:00,
2013-03-12 03:55:00,21.9,9.0,31.01,West,274,3.6,3.6,57,0.00,,---,0.00,VWS V14.01,2013-03-12 08:55:00,
2013-03-12 04:05:00,21.9,9.0,31.01,WNW,282,3.6,3.6,57,0.00,,---,0.00,VWS V14.01,2013-03-12 09:05:00,
2013-03-12 04:10:00,21.9,9.0,31.01,WNW,303,0.0,0.0,57,0.00,,---,0.00,VWS V14.01,2013-03-12 09:10:00,
2013-03-12 04:15:00,21.9,9.0,31.01,WNW,287,2.2,2.2,57,0.00,,---,0.00,VWS V14.01,2013-03-12 09:15:00,
2013-03-12 04:25:00,21.9,9.0,31.01,WNW,298,2.7,2.7,57,0.00,,---,0.00,VWS V14.01,2013-03-12 09:25:00,
2013-03-12 04:30:00,21.9,9.0,31.01,NW,313,3.1,3.1,57,0.00,,---,0.00,VWS V14.01,2013-03-12 09:30:00,
2013-03-12 04:40:00,21.9,9.0,31.01,NW,305,4.0,4.0,57,0.00,,---,0.00,VWS V14.01,2013-03-12 09:40:00,
2013-03-12 04:50:00,21.9,9.0,31.01,West,270,6.3,6.3,57,0.00,,---,0.00,VWS V14.01,2013-03-12 09:50:00,
2013-03-12 05:00:00,21.9,9.4,31.01,WNW,301,0.0,0.0,58,0.00,,---,0.00,VWS V14.01,2013-03-12 10:00:00,
2013-03-12 05:05:00,22.1,9.6,31.01,West,275,2.7,2.7,58,0.00,,---,0.00,VWS V14.01,2013-03-12 10:05:00,
2013-03-12 05:10:00,22.1,9.6,31.01,NW,314,2.7,2.7,58,0.00,,---,0.00,VWS V14.01,2013-03-12 10:10:00,
2013-03-12 05:15:00,22.1,10.0,31.01,NW,312,3.1,3.1,59,0.00,,---,0.00,VWS V14.01,2013-03-12 10:15:00,
2013-03-12 05:25:00,22.3,10.5,31.01,WNW,302,4.0,4.0,60,0.00,,---,0.00,VWS V14.01,2013-03-12 10:25:00,
2013-03-12 05:35:00,22.1,10.0,31.01,WNW,293,3.1,3.1,59,0.00,,---,0.00,VWS V14.01,2013-03-12 10:35:00,
2013-03-12 05:40:00,22.1,10.0,31.01,NW,321,2.7,2.7,59,0.00,,---,0.00,VWS V14.01,2013-03-12 10:40:00,
2013-03-12 05:50:00,22.1,10.0,31.01,WNW,295,2.7,2.7,59,0.00,,---,0.00,VWS V14.01,2013-03-12 10:50:00,
2013-03-12 06:00:00,22.1,10.0,31.01,NW,311,4.9,4.9,59,0.00,,---,0.00,VWS V14.01,2013-03-12 11:00:00,
2013-03-12 06:05:00,22.1,10.0,31.01,NW,319,3.1,3.1,59,0.00,,---,0.00,VWS V14.01,2013-03-12 11:05:00,
2013-03-12 06:15:00,22.3,10.9,31.01,WNW,295,3.6,3.6,61,0.00,,---,0.00,VWS V14.01,2013-03-12 11:15:00,
2013-03-12 06:25:00,22.5,11.4,31.01,NW,325,5.4,5.4,62,0.00,,---,0.00,VWS V14.01,2013-03-12 11:25:00,
2013-03-12 06:30:00,22.3,10.9,30.95,NW,311,3.1,3.1,61,0.00,,---,0.00,VWS V14.01,2013-03-12 11:30:00,
2013-03-12 06:35:00,22.3,10.9,30.95,NW,318,5.8,5.8,61,0.00,,---,0.00,VWS V14.01,2013-03-12 11:35:00,
2013-03-12 06:45:00,22.1,10.7,30.95,NW,325,6.3,6.3,61,0.00,,---,0.00,VWS V14.01,2013-03-12 11:45:00,
2013-03-12 06:50:00,22.1,10.7,30.86,NW,321,6.7,6.7,61,0.00,,---,0.00,VWS V14.01,2013-03-12 11:50:00,
2013-03-12 07:00:00,22.1,10.7,30.83,WNW,294,7.6,7.6,61,0.00,,---,0.00,VWS V14.01,2013-03-12 12:00:00,
2013-03-12 07:05:00,22.1,10.7,30.83,NW,306,3.6,3.6,61,0.00,,---,0.00,VWS V14.01,2013-03-12 12:05:00,
2013-03-12 07:15:00,22.1,10.7,30.86,NNW,335,4.0,4.0,61,0.00,,---,0.00,VWS V14.01,2013-03-12 12:15:00,
2013-03-12 07:20:00,22.1,10.7,30.86,NNW,341,3.1,3.1,61,0.00,,---,0.00,VWS V14.01,2013-03-12 12:20:00,
2013-03-12 07:25:00,22.1,10.7,30.86,WNW,302,2.2,2.2,61,0.00,,---,0.00,VWS V14.01,2013-03-12 12:25:00,
2013-03-12 07:35:00,21.9,10.9,30.92,NW,318,5.8,5.8,62,0.00,,---,0.00,VWS V14.01,2013-03-12 12:35:00,
2013-03-12 07:45:00,21.9,10.9,30.95,NW,325,3.6,3.6,62,0.00,,---,0.00,VWS V14.01,2013-03-12 12:45:00,
2013-03-12 07:55:00,22.1,11.8,30.95,NNW,333,6.7,6.7,64,0.00,,---,0.00,VWS V14.01,2013-03-12 12:55:00,
2013-03-12 08:05:00,22.8,13.5,30.98,North,357,4.0,4.0,67,0.00,,---,0.00,VWS V14.01,2013-03-12 13:05:00,
2013-03-12 08:10:00,22.8,13.5,30.98,NNW,328,4.0,4.0,67,0.00,,---,0.00,VWS V14.01,2013-03-12 13:10:00,
2013-03-12 08:20:00,22.3,10.9,30.95,NW,316,2.7,2.7,61,0.00,,---,0.00,VWS V14.01,2013-03-12 13:20:00,
2013-03-12 08:25:00,22.1,10.4,30.95,NW,322,4.9,4.9,60,0.00,,---,0.00,VWS V14.01,2013-03-12 13:25:00,
2013-03-12 08:35:00,21.9,9.8,30.92,North,353,6.3,6.3,59,0.00,,---,0.00,VWS V14.01,2013-03-12 13:35:00,
2013-03-12 08:45:00,21.9,9.4,30.95,NNW,329,5.4,5.4,58,0.00,,---,0.00,VWS V14.01,2013-03-12 13:45:00,
2013-03-12 08:50:00,21.9,9.4,30.95,NNW,345,3.1,3.1,58,0.00,,---,0.00,VWS V14.01,2013-03-12 13:50:00,
2013-03-12 08:55:00,21.9,9.0,30.95,NNW,344,4.0,4.0,57,0.00,,---,0.00,VWS V14.01,2013-03-12 13:55:00,
2013-03-12 09:05:00,22.3,9.0,30.95,NW,323,8.1,8.1,56,0.00,,---,0.00,VWS V14.01,2013-03-12 14:05:00,
2013-03-12 09:10:00,22.5,9.1,30.95,North,350,5.8,5.8,56,0.00,,---,0.00,VWS V14.01,2013-03-12 14:10:00,
2013-03-12 09:20:00,23.0,9.2,30.86,NW,304,8.7,8.7,55,0.00,,---,0.00,VWS V14.01,2013-03-12 14:20:00,
2013-03-12 09:30:00,22.6,8.5,30.83,NNW,328,6.3,6.3,54,0.00,,---,0.00,VWS V14.01,2013-03-12 14:30:00,
2013-03-12 09:35:00,22.6,8.5,30.83,NNW,345,8.1,8.1,54,0.00,,---,0.00,VWS V14.01,2013-03-12 14:35:00,
2013-03-12 09:45:00,22.6,8.9,30.92,West,278,4.0,4.0,55,0.00,,---,0.00,VWS V14.01,2013-03-12 14:45:00,
2013-03-12 09:55:00,23.2,9.0,30.92,NW,322,5.4,5.4,54,0.00,,---,0.00,VWS V14.01,2013-03-12 14:55:00,
2013-03-12 10:00:00,23.0,8.9,30.77,NW,321,6.3,6.3,54,0.00,,---,0.00,VWS V14.01,2013-03-12 15:00:00,
2013-03-12 10:05:00,23.4,9.2,30.77,WNW,302,7.6,7.6,54,0.00,,---,0.00,VWS V14.01,2013-03-12 15:05:00,
2013-03-12 10:15:00,24.3,9.6,30.83,West,268,8.1,8.1,53,0.00,,---,0.00,VWS V14.01,2013-03-12 15:15:00,
2013-03-12 10:20:00,24.6,9.9,30.83,WNW,289,5.4,5.4,53,0.00,,---,0.00,VWS V14.01,2013-03-12 15:20:00,
2013-03-12 10:30:00,25.3,10.2,30.92,North,349,10.1,10.1,52,0.00,,---,0.00,VWS V14.01,2013-03-12 15:30:00,
2013-03-12 10:35:00,25.7,10.5,30.92,NW,326,5.4,5.4,52,0.00,,---,0.00,VWS V14.01,2013-03-12 15:35:00,
2013-03-12 10:40:00,26.1,10.9,30.92,NNW,345,3.6,3.6,52,0.00,,---,0.00,VWS V14.01,2013-03-12 15:40:00,
2013-03-12 10:45:00,26.1,10.9,30.92,NW,311,7.6,7.6,52,0.00,,---,0.00,VWS V14.01,2013-03-12 15:45:00,
2013-03-12 10:50:00,26.2,11.0,30.98,NW,322,8.3,8.3,52,0.00,,---,0.00,VWS V14.01,2013-03-12 15:50:00,
2013-03-12 11:00:00,26.2,11.4,30.98,NW,314,3.6,3.6,53,0.00,,---,0.00,VWS V14.01,2013-03-12 16:00:00,
2013-03-12 11:05:00,26.4,12.0,30.98,NW,324,5.4,5.4,54,0.00,,---,0.00,VWS V14.01,2013-03-12 16:05:00,
2013-03-12 11:15:00,27.1,11.9,30.98,West,279,4.9,4.9,52,0.00,,---,0.00,VWS V14.01,2013-03-12 16:15:00,
2013-03-12 11:25:00,27.3,11.6,30.98,WNW,299,8.1,8.1,51,0.00,,---,0.00,VWS V14.01,2013-03-12 16:25:00,
2013-03-12 11:30:00,27.7,11.9,30.95,NW,325,6.3,6.3,51,0.00,,---,0.00,VWS V14.01,2013-03-12 16:30:00,
2013-03-12 11:40:00,28.8,12.5,30.95,NNW,337,8.1,8.1,50,0.00,,---,0.00,VWS V14.01,2013-03-12 16:40:00,
2013-03-12 11:50:00,29.7,12.4,31.01,NW,307,4.0,4.0,48,0.00,,---,0.00,VWS V14.01,2013-03-12 16:50:00,
2013-03-12 11:55:00,29.5,11.8,31.01,NW,320,6.3,6.3,47,0.00,,---,0.00,VWS V14.01,2013-03-12 16:55:00,
2013-03-12 12:00:00,29.8,13.0,31.01,WNW,285,4.0,4.0,49,0.00,,---,0.00,VWS V14.01,2013-03-12 17:00:00,
2013-03-12 12:05:00,30.2,12.9,31.01,WNW,290,12.8,12.8,48,0.00,,---,0.00,VWS V14.01,2013-03-12 17:05:00,
2013-03-12 12:15:00,30.6,12.7,31.01,North,357,4.0,4.0,47,0.00,,---,0.00,VWS V14.01,2013-03-12 17:15:00,
2013-03-12 12:20:00,30.7,11.9,31.01,NW,322,4.0,4.0,45,0.00,,---,0.00,VWS V14.01,2013-03-12 17:20:00,
2013-03-12 12:25:00,31.1,12.2,31.01,West,268,3.1,3.1,45,0.00,,---,0.00,VWS V14.01,2013-03-12 17:25:00,
2013-03-12 12:35:00,31.8,12.9,30.92,WNW,291,5.8,5.8,45,0.00,,---,0.00,VWS V14.01,2013-03-12 17:35:00,
2013-03-12 12:40:00,32.4,12.9,30.92,WNW,287,6.7,6.7,44,0.00,,---,0.00,VWS V14.01,2013-03-12 17:40:00,
2013-03-12 12:50:00,33.1,13.0,30.92,NW,325,16.3,16.3,43,0.00,,---,0.00,VWS V14.01,2013-03-12 17:50:00,
2013-03-12 13:00:00,32.2,12.2,30.95,WNW,291,5.4,5.4,43,0.00,,---,0.00,VWS V14.01,2013-03-12 18:00:00,
2013-03-12 13:05:00,32.0,12.1,30.95,NW,317,5.8,5.8,43,0.00,,---,0.00,VWS V14.01,2013-03-12 18:05:00,
2013-03-12 13:10:00,31.1,11.2,30.95,NW,314,6.3,6.3,43,0.00,,---,0.00,VWS V14.01,2013-03-12 18:10:00,
2013-03-12 13:15:00,32.0,12.1,30.92,NNW,331,5.8,5.8,43,0.00,,---,0.00,VWS V14.01,2013-03-12 18:15:00,
2013-03-12 13:25:00,30.4,10.1,30.92,NW,324,4.9,4.9,42,0.00,,---,0.00,VWS V14.01,2013-03-12 18:25:00,
2013-03-12 13:30:00,30.4,10.6,30.92,SW,229,5.8,5.8,43,0.00,,---,0.00,VWS V14.01,2013-03-12 18:30:00,
2013-03-12 13:40:00,30.2,10.9,30.92,NNW,332,5.4,5.4,44,0.00,,---,0.00,VWS V14.01,2013-03-12 18:40:00,
2013-03-12 13:50:00,30.4,11.1,30.98,North,350,11.4,11.4,44,0.00,,---,0.00,VWS V14.01,2013-03-12 18:50:00,
2013-03-12 13:55:00,30.4,11.1,30.98,WNW,299,8.3,8.3,44,0.00,,---,0.00,VWS V14.01,2013-03-12 18:55:00,
2013-03-12 14:00:00,31.1,12.2,30.98,NW,324,5.8,5.8,45,0.00,,---,0.00,VWS V14.01,2013-03-12 19:00:00,
2013-03-12 14:05:00,32.2,12.2,30.98,West,266,10.1,10.1,43,0.00,,---,0.00,VWS V14.01,2013-03-12 19:05:00,
2013-03-12 14:15:00,32.5,12.5,30.98,WNW,283,6.3,6.3,43,0.00,,---,0.00,VWS V14.01,2013-03-12 19:15:00,
2013-03-12 14:25:00,32.4,12.4,30.98,NW,325,5.4,5.4,43,0.00,,---,0.00,VWS V14.01,2013-03-12 19:25:00,
2013-03-12 14:35:00,32.0,11.5,30.98,NNW,335,8.7,8.7,42,0.00,,---,0.00,VWS V14.01,2013-03-12 19:35:00,
2013-03-12 14:40:00,31.6,11.2,30.98,WNW,282,8.3,8.3,42,0.00,,---,0.00,VWS V14.01,2013-03-12 19:40:00,
2013-03-12 14:50:00,31.3,10.9,31.01,NW,320,6.3,6.3,42,0.00,,---,0.00,VWS V14.01,2013-03-12 19:50:00,
2013-03-12 15:00:00,30.2,9.9,31.01,NNW,329,6.7,6.7,42,0.00,,---,0.00,VWS V14.01,2013-03-12 20:00:00,
2013-03-12 15:10:00,31.1,10.2,31.01,NW,310,3.1,3.1,41,0.00,,---,0.00,VWS V14.01,2013-03-12 20:10:00,
2013-03-12 15:20:00,31.5,10.5,31.01,WNW,288,8.3,8.3,41,0.00,,---,0.00,VWS V14.01,2013-03-12 20:20:00,
2013-03-12 15:25:00,31.5,10.5,31.01,West,274,8.1,8.1,41,0.00,,---,0.00,VWS V14.01,2013-03-12 20:25:00,
2013-03-12 15:35:00,32.4,11.3,31.01,WNW,302,4.9,4.9,41,0.00,,---,0.00,VWS V14.01,2013-03-12 20:35:00,
2013-03-12 15:45:00,32.0,10.4,31.01,North,353,3.6,3.6,40,0.00,,---,0.00,VWS V14.01,2013-03-12 20:45:00,
2013-03-12 15:55:00,31.8,10.8,31.01,NNW,333,10.5,10.5,41,0.00,,---,0.00,VWS V14.01,2013-03-12 20:55:00,
2013-03-12 16:00:00,32.2,11.1,31.01,NNW,339,10.1,10.1,41,0.00,,---,0.00,VWS V14.01,2013-03-12 21:00:00,
2013-03-12 16:10:00,31.8,10.3,31.01,NW,318,6.3,6.3,40,0.00,,---,0.00,VWS V14.01,2013-03-12 21:10:00,
2013-03-12 16:15:00,32.2,10.6,31.01,WNW,289,9.6,9.6,40,0.00,,---,0.00,VWS V14.01,2013-03-12 21:15:00,
2013-03-12 16:20:00,32.2,10.6,31.01,WNW,298,8.3,8.3,40,0.00,,---,0.00,VWS V14.01,2013-03-12 21:20:00,
2013-03-12 16:30:00,31.6,9.5,31.01,West,277,3.6,3.6,39,0.00,,---,0.00,VWS V14.01,2013-03-12 21:30:00,
2013-03-12 16:35:00,31.8,9.7,31.01,NW,312,8.1,8.1,39,0.00,,---,0.00,VWS V14.01,2013-03-12 21:35:00,
2013-03-12 16:45:00,32.4,10.2,31.01,West,280,4.9,4.9,39,0.00,,---,0.00,VWS V14.01,2013-03-12 21:45:00,
2013-03-12 16:55:00,32.5,9.8,31.01,NW,320,8.1,8.1,38,0.00,,---,0.00,VWS V14.01,2013-03-12 21:55:00,
2013-03-12 17:00:00,32.7,9.9,31.01,NW,316,10.1,10.1,38,0.00,,---,0.00,VWS V14.01,2013-03-12 22:00:00,
2013-03-12 17:05:00,33.1,10.2,31.01,NW,318,5.4,5.4,38,0.00,,---,0.00,VWS V14.01,2013-03-12 22:05:00,
2013-03-12 17:15:00,32.7,9.9,31.01,NW,305,5.8,5.8,38,0.00,,---,0.00,VWS V14.01,2013-03-12 22:15:00,
2013-03-12 17:20:00,32.2,9.4,31.01,NW,306,8.3,8.3,38,0.00,,---,0.00,VWS V14.01,2013-03-12 22:20:00,
2013-03-12 17:30:00,31.8,9.1,30.98,West,272,5.8,5.8,38,0.00,,---,0.00,VWS V14.01,2013-03-12 22:30:00,
2013-03-12 17:40:00,31.3,8.6,30.98,WNW,297,10.5,10.5,38,0.00,,---,0.00,VWS V14.01,2013-03-12 22:40:00,
2013-03-12 17:50:00,30.2,8.2,31.01,North,357,5.8,5.8,39,0.00,,---,0.00,VWS V14.01,2013-03-12 22:50:00,
2013-03-12 17:55:00,30.0,8.1,31.01,West,279,4.0,4.0,39,0.00,,---,0.00,VWS V14.01,2013-03-12 22:55:00,
2013-03-12 18:00:00,29.8,7.9,31.01,NW,325,8.3,8.3,39,0.00,,---,0.00,VWS V14.01,2013-03-12 23:00:00,
2013-03-12 18:05:00,29.7,8.3,31.01,North,357,4.0,4.0,40,0.00,,---,0.00,VWS V14.01,2013-03-12 23:05:00,
2013-03-12 18:15:00,29.1,7.8,31.01,NNW,328,7.6,7.6,40,0.00,,---,0.00,VWS V14.01,2013-03-12 23:15:00,
2013-03-12 18:25:00,28.8,8.0,31.01,North,4,3.6,3.6,41,0.00,,---,0.00,VWS V14.01,2013-03-12 23:25:00,
2013-03-12 18:30:00,28.6,7.9,31.01,NW,326,4.9,4.9,41,0.00,,---,0.00,VWS V14.01,2013-03-12 23:30:00,
2013-03-12 18:35:00,28.4,7.7,31.01,North,4,6.3,6.3,41,0.00,,---,0.00,VWS V14.01,2013-03-12 23:35:00,
2013-03-12 18:40:00,28.0,7.4,31.01,NNE,33,5.8,5.8,41,0.00,,---,0.00,VWS V14.01,2013-03-12 23:40:00,
2013-03-12 18:50:00,27.9,7.2,31.01,NW,311,2.7,2.7,41,0.00,,---,0.00,VWS V14.01,2013-03-12 23:50:00,
2013-03-12 19:00:00,27.7,7.6,31.01,WSW,257,7.6,7.6,42,0.00,,---,0.00,VWS V14.01,2013-03-13 00:00:00,
2013-03-12 19:05:00,27.5,7.4,31.01,WNW,298,3.1,3.1,42,0.00,,---,0.00,VWS V14.01,2013-03-13 00:05:00,
2013-03-12 19:15:00,27.0,6.9,31.01,WNW,289,5.4,5.4,42,0.00,,---,0.00,VWS V14.01,2013-03-13 00:15:00,
2013-03-12 19:25:00,26.8,6.8,31.01,NNW,339,5.4,5.4,42,0.00,,---,0.00,VWS V14.01,2013-03-13 00:25:00,
2013-03-12 19:35:00,26.4,7.0,31.01,NNW,343,5.8,5.8,43,0.00,,---,0.00,VWS V14.01,2013-03-13 00:35:00,
2013-03-12 19:40:00,26.2,6.8,31.01,NW,313,5.8,5.8,43,0.00,,---,0.00,VWS V14.01,2013-03-13 00:40:00,
2013-03-12 19:50:00,26.1,6.6,31.01,West,272,4.0,4.0,43,0.00,,---,0.00,VWS V14.01,2013-03-13 00:50:00,
2013-03-12 20:00:00,25.9,6.5,31.01,NNW,328,2.7,2.7,43,0.00,,---,0.00,VWS V14.01,2013-03-13 01:00:00,
2013-03-12 20:10:00,25.7,6.3,31.01,NW,312,0.0,0.0,43,0.00,,---,0.00,VWS V14.01,2013-03-13 01:10:00,
2013-03-12 20:15:00,25.5,6.2,31.01,NNW,335,2.2,2.2,43,0.00,,---,0.00,VWS V14.01,2013-03-13 01:15:00,
2013-03-12 20:25:00,25.5,6.2,30.98,NNW,343,5.8,5.8,43,0.00,,---,0.00,VWS V14.01,2013-03-13 01:25:00,
2013-03-12 20:35:00,25.3,6.0,30.98,NW,308,3.6,3.6,43,0.00,,---,0.00,VWS V14.01,2013-03-13 01:35:00,
2013-03-12 20:45:00,25.2,5.8,31.01,NW,320,3.1,3.1,43,0.00,,---,0.00,VWS V14.01,2013-03-13 01:45:00,
2013-03-12 20:50:00,25.0,5.7,31.01,NNW,346,3.1,3.1,43,0.00,,---,0.00,VWS V14.01,2013-03-13 01:50:00,
2013-03-12 21:00:00,24.8,6.0,31.01,NNW,333,5.4,5.4,44,0.00,,---,0.00,VWS V14.01,2013-03-13 02:00:00,
2013-03-12 21:10:00,24.6,5.3,31.01,NW,324,3.6,3.6,43,0.00,,---,0.00,VWS V14.01,2013-03-13 02:10:00,
2013-03-12 21:15:00,24.4,5.2,31.01,North,349,5.8,5.8,43,0.00,,---,0.00,VWS V14.01,2013-03-13 02:15:00,
2013-03-12 21:25:00,24.4,5.2,31.01,NW,322,3.1,3.1,43,0.00,,---,0.00,VWS V14.01,2013-03-13 02:25:00,
2013-03-12 21:35:00,24.1,4.8,31.01,NNW,329,3.6,3.6,43,0.00,,---,0.00,VWS V14.01,2013-03-13 02:35:00,
2013-03-12 21:45:00,23.9,4.7,31.01,WNW,288,2.7,2.7,43,0.00,,---,0.00,VWS V14.01,2013-03-13 02:45:00,
2013-03-12 21:55:00,23.7,4.5,31.01,North,350,4.0,4.0,43,0.00,,---,0.00,VWS V14.01,2013-03-13 02:55:00,
2013-03-12 22:00:00,23.7,4.5,31.01,NW,325,6.3,6.3,43,0.00,,---,0.00,VWS V14.01,2013-03-13 03:00:00,
2013-03-12 22:10:00,23.5,4.3,31.01,WNW,292,4.0,4.0,43,0.00,,---,0.00,VWS V14.01,2013-03-13 03:10:00,
2013-03-12 22:20:00,23.4,4.2,31.01,North,349,2.7,2.7,43,0.00,,---,0.00,VWS V14.01,2013-03-13 03:20:00,
2013-03-12 22:30:00,23.2,4.0,31.01,NNW,327,3.6,3.6,43,0.00,,---,0.00,VWS V14.01,2013-03-13 03:30:00,
2013-03-12 22:35:00,23.2,4.0,31.01,NNW,335,3.1,3.1,43,0.00,,---,0.00,VWS V14.01,2013-03-13 03:35:00,
2013-03-12 22:40:00,23.0,4.3,31.01,NW,321,3.6,3.6,44,0.00,,---,0.00,VWS V14.01,2013-03-13 03:40:00,
2013-03-12 22:45:00,22.8,4.2,31.01,WNW,301,3.1,3.1,44,0.00,,---,0.00,VWS V14.01,2013-03-13 03:45:00,
2013-03-12 22:55:00,22.6,4.0,31.01,WNW,295,2.7,2.7,44,0.00,,---,0.00,VWS V14.01,2013-03-13 03:55:00,
2013-03-12 23:00:00,22.5,3.9,31.01,NW,324,3.6,3.6,44,0.00,,---,0.00,VWS V14.01,2013-03-13 04:00:00,
2013-03-12 23:05:00,22.1,3.5,31.01,WNW,299,3.6,3.6,44,0.00,,---,0.00,VWS V14.01,2013-03-13 04:05:00,
2013-03-12 23:10:00,21.9,3.4,31.01,NNW,328,6.3,6.3,44,0.00,,---,0.00,VWS V14.01,2013-03-13 04:10:00,
2013-03-12 23:20:00,21.7,3.2,31.01,NW,305,3.1,3.1,44,0.00,,---,0.00,VWS V14.01,2013-03-13 04:20:00,
2013-03-12 23:25:00,21.4,2.9,31.01,WNW,299,4.5,4.5,44,0.00,,---,0.00,VWS V14.01,2013-03-13 04:25:00,
2013-03-12 23:30:00,21.2,3.2,31.01,WNW,300,4.0,4.0,45,0.00,,---,0.00,VWS V14.01,2013-03-13 04:30:00,
2013-03-12 23:40:00,20.8,4.7,31.01,WNW,290,5.8,5.8,49,0.00,,---,0.00,VWS V14.01,2013-03-13 04:40:00,
2013-03-12 23:45:00,20.8,5.6,31.01,NNW,333,2.2,2.2,51,0.00,,---,0.00,VWS V14.01,2013-03-13 04:45:00,
2013-03-12 23:55:00,20.5,6.5,31.01,WNW,291,2.7,2.7,54,0.00,,---,0.00,VWS V14.01,2013-03-13 04:55:00,